Location: Battery Park City
(40.7115°N, 74.0163°W)
Time: 04:47:42
(UTC+00:00)

USA 267 - Pass Details

Date: 08 December 2019
Orbit: 1100 x 1107 km, 123.0° (Epoch: 19 January)

Event Time Altitude Azimuth Distance (km) Brightness Sun altitude
Rises 22:52:08 0° 145° (SE) 3,902 6.0 -15.4°
Reaches altitude 10° 22:54:39 10° 149° (SSE) 2,947 5.4 -15.8°
Maximum altitude 23:01:02 58° 227° (SW) 1,264 3.9 -17.0°
Drops below altitude 10° 23:07:28 10° 306° (NW) 2,961 6.0 -18.2°
Sets 23:10:01 0° 311° (NW) 3,922 6.7 -18.6°
